Location: Mesa Vista Observatory
(35.5777°N, 105.6987°W)
Time: 00:41:47
(UTC-06:00)

N. Korean satellite - Visible Passes

Search period start: 13 August 2020 00:00
Search period end: 23 August 2020 00:00
Orbit: 453 x 506 km, 97.2° (Epoch: 12 August)

Date Brightness Start Highest point End Pass type
(mag) Time Alt. Az. Time Alt. Az. Time Alt. Az.
13 Aug 9.8 05:38:37 10° ENE 05:40:19 13° E 05:42:02 10° ESE visible
16 Aug 9.4 05:53:15 10° NE 05:56:02 21° E 05:58:49 10° SSE visible
20 Aug 9.7 05:43:23 10° NE 05:45:39 16° E 05:47:56 10° SE visible
